Simultaneous Nadir Overpasses (SNOs) Predictions

Prediction of SNOs between GOES-14 and NOAA-20 Satellite Orbit:

Table of predicted SNOs for the next 14.0 days since TLE Epoch: 5/25/2024
Index Date Time (GOES-14) GOES-14 Lat,Lon NOAA-20 Lat,Lon Distance(km) Time Diff (sec)
1 05/25/2024 20:37:00 -0.09,-108.61 0.10,-107.70 104.07 80
2 05/27/2024 08:56:05 0.06,-108.61 1.03,-112.97 496.37 80
3 05/28/2024 08:39:58 0.08,-108.60 0.04,-108.42 20.28 80
4 05/30/2024 20:40:24 -0.07,-108.58 -0.18,-109.18 68.48 80
5 05/31/2024 20:24:16 -0.08,-108.57 0.82,-104.64 448.95 80
6 06/02/2024 08:43:21 0.05,-108.58 0.36,-109.90 150.82 80
7 06/03/2024 08:27:13 0.07,-108.57 -0.64,-105.36 365.93 80
8 06/04/2024 20:46:25 -0.03,-108.54 -0.53,-110.65 240.87 80
9 06/05/2024 20:30:18 -0.05,-108.54 0.47,-106.11 276.26 80
10 06/07/2024 08:49:23 0.01,-108.55 0.63,-111.38 322.94 80
